Location: Wingville
(42.9917°N, 90.4915°W)
Time: 15:28:59
(UTC+00:00)

Cosmos 1805 Rocket - Pass Details

Date: 03 December 2022
Orbit: 604 x 629 km, 82.5° (Epoch: 04 February)

Event Time Altitude Azimuth Distance (km) Brightness Sun altitude
Rises 23:56:27 0° 3° (N) 2,912 6.8 -15.7°
Reaches altitude 10° 23:59:00 10° 16° (NNE) 2,005 5.9 -16.2°
Enters shadow 23:59:08 11° 17° (NNE) 1,962 5.8 -16.2°
